Location: Potomac
(46.8816°N, 113.5795°W)
Time: 10:53:28
(UTC+00:00)

Gurwin Techsat 1B - Pass Details

Date: 08 July 2022
Orbit: 812 x 813 km, 98.8° (Epoch: 09 August)

Event Time Altitude Azimuth Distance (km) Brightness Sun altitude
Rises 09:24:39 0° 22° (NNE) 3,346 13.6 -16.7°
Reaches altitude 10° 09:27:15 10° 33° (NNE) 2,409 12.4 -16.5°
Maximum altitude 09:32:00 32° 96° (E) 1,367 10.0 -16.2°
Enters shadow 09:36:39 10° 158° (SSE) 2,375 10.7 -15.8°
